| time (UTC) | temp F | wind direction | speed MPH | gust MPH | rain 1hr in | rain 24hr in | rain mn in | humidity % | barometer mb |
| 20260905121531 | 145 | 270 | 4.0 | 7.0 | 0.00 | 0.00 | 0.00 | 12 | 5318.5 |
| 20260905115308 | -13 | 270 | 6.0 | 9.0 | 0.00 | 0.00 | 0.00 | 12 | 5318.5 |
| 20260905115107 | -17 | 270 | 5.0 | 9.0 | 0.00 | 0.00 | 0.00 | 13 | 5318.5 |
| 20260905114258 | -67 | 270 | 4.0 | 9.0 | 0.00 | 0.00 | 0.00 | 13 | 5318.5 |
| 20260905114057 | 262 | 270 | 7.0 | 9.0 | 0.00 | 0.00 | 0.00 | 13 | 5318.5 |
| 20260905113651 | -31 | 270 | 5.0 | 11.0 | 0.00 | 0.00 | 0.00 | 13 | 5318.5 |
| 20260905113450 | 175 | 270 | 11.0 | 11.0 | 0.00 | 0.00 | 0.00 | 13 | 5318.5 |
| 20260905113046 | 715 | 270 | 9.0 | 9.0 | 0.00 | 0.00 | 0.00 | 13 | 1799.3 |
| 20260905112641 | 32 | 270 | 6.0 | 6.0 | 0.00 | 0.00 | 0.00 | 13 | 5318.5 |
| 20260905112439 | 247 | 270 | 4.0 | 9.0 | 0.00 | 0.00 | 0.00 | 13 | 5318.5 |
| 20260905111227 | -24 | 270 | 5.0 | 8.0 | 0.00 | 0.00 | 0.00 | 13 | 5318.5 |
| 20260905110824 | -18 | 270 | 7.0 | 7.0 | 0.00 | 0.00 | 0.00 | 13 | 5318.5 |
| 20260905105610 | 111 | 270 | 8.0 | 9.0 | 0.00 | 0.00 | 0.00 | 12 | 5318.5 |
| 20260905105206 | 715 | 270 | 5.0 | 12.0 | 0.00 | 0.00 | 0.00 | 12 | 1799.3 |
| 20260905103752 | 293 | 270 | 11.0 | 13.0 | 0.00 | 0.00 | 0.00 | 11 | 5318.5 |
| 20260905102337 | -10 | 270 | 8.0 | 10.0 | 0.00 | 0.00 | 0.00 | 12 | 5318.5 |
| 20260905101933 | 715 | 270 | 10.0 | 10.0 | 0.00 | 0.00 | 0.00 | 13 | 1799.4 |
| 20260905101329 | 49 | 270 | 5.0 | 7.0 | 0.00 | 0.00 | 0.00 | 13 | 5318.5 |
| 20260905100522 | 212 | 270 | 5.0 | 7.0 | 0.00 | 0.00 | 0.00 | 14 | 5318.5 |
| 20260905100316 | 173 | 270 | 3.0 | 8.0 | 0.00 | 0.00 | 0.00 | 14 | 403.4 |
| 20260905094659 | 715 | 270 | 5.0 | 6.0 | 0.00 | 0.00 | 0.00 | 17 | 4420.8 |
| 20260905094255 | 715 | 270 | 2.0 | 4.0 | 0.00 | 0.00 | 0.00 | 18 | 1799.3 |
| 20260905093648 | -56 | 270 | 2.0 | 4.0 | 0.00 | 0.00 | 0.00 | 18 | 403.3 |
| 20260905093243 | -14 | 270 | 4.0 | 4.0 | 0.00 | 0.00 | 0.00 | 18 | 5318.5 |
| 20260905092437 | 32 | 270 | 1.0 | 2.0 | 0.00 | 0.00 | 0.00 | 19 | 5320.2 |
| 20260905092035 | 164 | 270 | 0.0 | 3.0 | 0.00 | 0.00 | 0.00 | 20 | 5318.5 |
| 20260905091629 | 715 | 270 | 4.0 | 4.0 | 0.00 | 0.00 | 0.00 | 20 | 1799.3 |
| 20260905091439 | 313 | 270 | 2.0 | 4.0 | 0.00 | 0.00 | 0.00 | 20 | 5318.5 |
| 20260905090214 | 715 | 270 | 5.0 | 7.0 | 0.00 | 0.00 | 0.00 | 20 | 1799.4 |
| 20260905085609 | -15 | 270 | 5.0 | 6.0 | 0.00 | 0.00 | 0.00 | 21 | 5318.5 |
| 20260905085406 | -65 | 270 | 4.0 | 4.0 | 0.00 | 0.00 | 0.00 | 21 | 1714.1 |
| 20260905085204 | 714 | 270 | 2.0 | 2.0 | 0.00 | 0.00 | 0.00 | 21 | 4420.8 |
| 20260905084556 | 446 | 270 | 1.0 | 3.0 | 0.00 | 0.00 | 0.00 | 22 | 5318.5 |
| 20260905084404 | 138 | 270 | 3.0 | 4.0 | 0.00 | 0.00 | 0.00 | 21 | 5318.5 |
| 20260905084153 | 998 | 270 | 3.0 | 5.0 | 0.00 | 0.00 | 0.00 | 21 | 5318.5 |
| 20260905083548 | 249 | 270 | 6.0 | 9.0 | 0.00 | 0.00 | 0.00 | 20 | 5318.5 |
| 20260905082135 | -27 | 270 | 4.0 | 6.0 | 0.00 | 0.00 | 0.00 | 21 | 5318.5 |
| 20260905081931 | -18 | 270 | 6.0 | 6.0 | 0.00 | 0.00 | 0.00 | 21 | 5318.5 |
| 20260905081729 | -22 | 270 | 3.0 | 6.0 | 0.00 | 0.00 | 0.00 | 21 | 5318.5 |
| 20260905081531 | -13 | 270 | 5.0 | 6.0 | 0.00 | 0.00 | 0.00 | 21 | 403.4 |
| 20260905081325 | 715 | 270 | 5.0 | 6.0 | 0.00 | 0.00 | 0.00 | 21 | 1799.3 |
| 20260905080720 | -19 | 270 | 4.0 | 6.0 | 0.00 | 0.00 | 0.00 | 22 | 5318.5 |
| 20260905075915 | 906 | 270 | 4.0 | 6.0 | 0.00 | 0.00 | 0.00 | 22 | 5318.5 |
| 20260905075306 | 715 | 270 | 2.0 | 4.0 | 0.00 | 0.00 | 0.00 | 23 | 1799.4 |
| 20260905075101 | 715 | 270 | 4.0 | 4.0 | 0.00 | 0.00 | 0.00 | 23 | 488.7 |
| 20260905074455 | -30 | 270 | 3.0 | 4.0 | 0.00 | 0.00 | 0.00 | 25 | 5318.5 |
| 20260905074253 | 311 | 270 | 3.0 | 4.0 | 0.00 | 0.00 | 0.00 | 25 | 5318.5 |
| 20260905073045 | 715 | 270 | 1.0 | 1.0 | 0.00 | 0.00 | 0.00 | 27 | 1799.4 |
| 20260905072435 | -29 | 270 | 2.0 | 2.0 | 0.00 | 0.00 | 0.00 | 27 | 5318.5 |
| 20260905072036 | 715 | 270 | 0.0 | 2.0 | 0.00 | 0.00 | 0.00 | 29 | 1799.4 |
| 20260905070009 | 302 | 270 | 1.0 | 4.0 | 0.00 | 0.00 | 0.00 | 29 | 5318.5 |
| 20260905065607 | -29 | 270 | 1.0 | 4.0 | 0.00 | 0.00 | 0.00 | 29 | 5318.5 |
| 20260905065002 | -14 | 270 | 1.0 | 5.0 | 0.00 | 0.00 | 0.00 | 30 | 403.3 |
| 20260905064556 | -93 | 270 | 5.0 | 5.0 | 0.00 | 0.00 | 0.00 | 30 | 5318.5 |
| 20260905064152 | -38 | 270 | 2.0 | 4.0 | 0.00 | 0.00 | 0.00 | 31 | 5318.5 |
| 20260905063546 | 111 | 270 | 3.0 | 5.0 | 0.00 | 0.00 | 0.00 | 31 | 5318.5 |
| 20260905062538 | 182 | 270 | 1.0 | 4.0 | 0.00 | 0.00 | 0.00 | 32 | 5318.5 |
| 20260905061929 | 265 | 270 | 3.0 | 6.0 | 0.00 | 0.00 | 0.00 | 32 | 5318.5 |
| 20260905061121 | -27 | 270 | 0.0 | 3.0 | 0.00 | 0.00 | 0.00 | 33 | 5318.5 |
| 20260905060111 | -75 | 270 | 5.0 | 5.0 | 0.00 | 0.00 | 0.00 | 33 | 5318.5 |
| 20260905055059 | 129 | 270 | 5.0 | 5.0 | 0.00 | 0.00 | 0.00 | 32 | 5318.5 |
| 20260905054857 | 906 | 270 | 2.0 | 4.0 | 0.00 | 0.00 | 0.00 | 33 | 5318.5 |
| 20260905054657 | -31 | 270 | 2.0 | 5.0 | 0.00 | 0.00 | 0.00 | 32 | 5318.5 |
| 20260905054251 | 239 | 270 | 1.0 | 4.0 | 0.00 | 0.00 | 0.00 | 32 | 5318.5 |
| 20260905053241 | 311 | 270 | 2.0 | 4.0 | 0.00 | 0.00 | 0.00 | 31 | 5318.5 |
| 20260905052633 | 49 | 270 | 2.0 | 4.0 | 0.00 | 0.00 | 0.00 | 32 | 5318.5 |
| 20260905050413 | 175 | 270 | 3.0 | 3.0 | 0.00 | 0.00 | 0.00 | 32 | 5318.5 |
| 20260905045604 | 285 | 270 | 3.0 | 4.0 | 0.00 | 0.00 | 0.00 | 30 | 5318.5 |
| 20260905045159 | -31 | 270 | 2.0 | 5.0 | 0.00 | 0.00 | 0.00 | 31 | 5318.5 |
| 20260905044352 | -20 | 270 | 2.0 | 5.0 | 0.00 | 0.00 | 0.00 | 31 | 5318.5 |
| 20260905044149 | -24 | 270 | 4.0 | 5.0 | 0.00 | 0.00 | 0.00 | 31 | 5318.5 |
| 20260905043139 | 715 | 270 | 3.0 | 3.0 | 0.00 | 0.00 | 0.00 | 30 | 1799.1 |
| 20260905042331 | 722 | 270 | 3.0 | 4.0 | 0.00 | 0.00 | 0.00 | 31 | 5318.5 |
| 20260905041724 | 221 | 270 | 2.0 | 2.0 | 0.00 | 0.00 | 0.00 | 30 | 5318.5 |
| 20260905041321 | 276 | 270 | 1.0 | 3.0 | 0.00 | 0.00 | 0.00 | 31 | 5318.5 |
| 20260905040917 | -32 | 270 | 2.0 | 4.0 | 0.00 | 0.00 | 0.00 | 29 | 5318.5 |
| 20260905040512 | -26 | 270 | 2.0 | 4.0 | 0.00 | 0.00 | 0.00 | 30 | 5318.5 |
| 20260905040310 | -30 | 270 | 3.0 | 4.0 | 0.00 | 0.00 | 0.00 | 29 | 5318.5 |
| 20260905035704 | -15 | 270 | 3.0 | 3.0 | 0.00 | 0.00 | 0.00 | 29 | 5318.5 |
| 20260905035300 | -10 | 270 | 3.0 | 4.0 | 0.00 | 0.00 | 0.00 | 29 | 5318.5 |
| 20260905035057 | -14 | 270 | 0.0 | 4.0 | 0.00 | 0.00 | 0.00 | 29 | 5318.5 |
| 20260905034250 | 715 | 270 | 3.0 | 5.0 | 0.00 | 0.00 | 0.00 | 28 | 1799.3 |
| 20260905034049 | 715 | 270 | 2.0 | 3.0 | 0.00 | 0.00 | 0.00 | 28 | 4420.8 |
| 20260905033643 | 715 | 270 | 1.0 | 4.0 | 0.00 | 0.00 | 0.00 | 28 | 4420.7 |
| 20260905033242 | 173 | 270 | 3.0 | 4.0 | 0.00 | 0.00 | 0.00 | 29 | 5318.5 |
| 20260905032633 | 322 | 270 | 1.0 | 4.0 | 0.00 | 0.00 | 0.00 | 28 | 5318.5 |
| 20260905032234 | -27 | 270 | 3.0 | 4.0 | 0.00 | 0.00 | 0.00 | 28 | 5318.5 |
| 20260905031826 | -22 | 270 | 3.0 | 4.0 | 0.00 | 0.00 | 0.00 | 28 | 403.3 |
| 20260905031219 | -31 | 270 | 1.0 | 5.0 | 0.00 | 0.00 | 0.00 | 29 | 5318.5 |
| 20260905030814 | 715 | 270 | 3.0 | 4.0 | 0.00 | 0.00 | 0.00 | 29 | 4420.7 |
| 20260905025402 | 109 | 270 | 2.0 | 3.0 | 0.00 | 0.00 | 0.00 | 29 | 5318.5 |
| 20260905025159 | 203 | 270 | 1.0 | 4.0 | 0.00 | 0.00 | 0.00 | 29 | 5318.5 |
| 20260905024955 | 164 | 270 | 2.0 | 4.0 | 0.00 | 0.00 | 0.00 | 29 | 5318.5 |
| 20260905024154 | 274 | 270 | 4.0 | 5.0 | 0.00 | 0.00 | 0.00 | 28 | 5318.5 |
| 20260905023745 | -32 | 270 | 5.0 | 6.0 | 0.00 | 0.00 | 0.00 | 28 | 5318.5 |
| 20260905023544 | -23 | 270 | 3.0 | 6.0 | 0.00 | 0.00 | 0.00 | 28 | 5318.5 |
| 20260905023339 | -27 | 270 | 3.0 | 4.0 | 0.00 | 0.00 | 0.00 | 28 | 5318.5 |
| 20260905022531 | -15 | 270 | 3.0 | 4.0 | 0.00 | 0.00 | 0.00 | 28 | 5318.5 |
| 20260905021520 | 446 | 270 | 1.0 | 3.0 | 0.00 | 0.00 | 0.00 | 28 | 5318.5 |
| 20260905021319 | 138 | 270 | 2.0 | 5.0 | 0.00 | 0.00 | 0.00 | 28 | 5318.5 |
| 20260905020913 | 193 | 270 | 4.0 | 6.0 | 0.00 | 0.00 | 0.00 | 27 | 5318.5 |
| 20260905020511 | 249 | 270 | 2.0 | 5.0 | 0.00 | 0.00 | 0.00 | 27 | 5321.1 |
| 20260905020307 | 210 | 270 | 2.0 | 6.0 | 0.00 | 0.00 | 0.00 | 28 | 5318.5 |
| 20260905015903 | 265 | 270 | 1.0 | 5.0 | 0.00 | 0.00 | 0.00 | 27 | 5318.5 |
| 20260905015258 | -24 | 270 | 2.0 | 4.0 | 0.00 | 0.00 | 0.00 | 27 | 5318.5 |
| 20260905014247 | -16 | 270 | 2.0 | 5.0 | 0.00 | 0.00 | 0.00 | 26 | 5318.5 |
| 20260905014048 | -75 | 270 | 1.0 | 5.0 | 0.00 | 0.00 | 0.00 | 27 | 5318.5 |
| 20260905013640 | -19 | 270 | 2.0 | 5.0 | 0.00 | 0.00 | 0.00 | 26 | 5318.5 |
| 20260905013239 | 354 | 270 | 4.0 | 8.0 | 0.00 | 0.00 | 0.00 | 26 | 5318.5 |
| 20260905013035 | 129 | 270 | 4.0 | 8.0 | 0.00 | 0.00 | 0.00 | 26 | 5318.5 |
| 20260905012631 | 184 | 270 | 3.0 | 7.0 | 0.00 | 0.00 | 0.00 | 26 | 1714.1 |
| 20260905012226 | 715 | 270 | 4.0 | 4.0 | 0.00 | 0.00 | 0.00 | 26 | 4420.8 |
| 20260905010610 | -19 | 270 | 3.0 | 7.0 | 0.00 | 0.00 | 0.00 | 24 | 5318.5 |
| 20260905010205 | -13 | 270 | 4.0 | 6.0 | 0.00 | 0.00 | 0.00 | 23 | 5318.5 |
| 20260905005558 | -12 | 270 | 1.0 | 5.0 | 0.00 | 0.00 | 0.00 | 24 | 5318.5 |
| 20260905003943 | 230 | 270 | 3.0 | 5.0 | 0.00 | 0.00 | 0.00 | 23 | 5318.5 |
| 20260905003538 | 285 | 270 | 5.0 | 9.0 | 0.00 | 0.00 | 0.00 | 22 | 5318.5 |
| 20260905003339 | 247 | 270 | 6.0 | 9.0 | 0.00 | 0.00 | 0.00 | 22 | 5318.5 |
| 20260905002329 | -20 | 270 | 2.0 | 10.0 | 0.00 | 0.00 | 0.00 | 22 | 5318.5 |
| 20260905001720 | -18 | 270 | 4.0 | 7.0 | 0.00 | 0.00 | 0.00 | 22 | 5318.5 |
| 20260905001518 | 715 | 270 | 5.0 | 7.0 | 0.00 | 0.00 | 0.00 | 22 | 1799.3 |
| 20260905001316 | -31 | 270 | 7.0 | 7.0 | 0.00 | 0.00 | 0.00 | 21 | 5318.5 |
| 20260905000509 | 111 | 270 | 3.0 | 8.0 | 0.00 | 0.00 | 0.00 | 21 | 5318.5 |
| 20260904235905 | 127 | 270 | 5.0 | 6.0 | 0.00 | 0.00 | 0.00 | 20 | 5318.5 |
| 20260904235701 | 221 | 270 | 5.0 | 6.0 | 0.00 | 0.00 | 0.00 | 20 | 5318.5 |
| 20260904235500 | 182 | 270 | 3.0 | 5.0 | 0.00 | 0.00 | 0.00 | 20 | 5318.5 |
| 20260904235255 | 276 | 270 | 4.0 | 5.0 | 0.00 | 0.00 | 0.00 | 20 | 5318.5 |
| 20260904235023 | 715 | 270 | 6.0 | 11.0 | 0.00 | 0.00 | 0.00 | 19 | 4420.8 |
| 20260904234244 | 715 | 270 | 6.0 | 11.0 | 0.00 | 0.00 | 0.00 | 19 | 4420.8 |
| 20260904234044 | -21 | 270 | 6.0 | 7.0 | 0.00 | 0.00 | 0.00 | 19 | 5318.5 |
| 20260904233641 | -15 | 270 | 6.0 | 7.0 | 0.00 | 0.00 | 0.00 | 18 | 5318.5 |
| 20260904233437 | 715 | 270 | 6.0 | 9.0 | 0.00 | 0.00 | 0.00 | 18 | 1799.4 |
| 20260904233032 | -14 | 270 | 4.0 | 10.0 | 0.00 | 0.00 | 0.00 | 18 | 5318.5 |
| 20260904232224 | 715 | 270 | 6.0 | 9.0 | 0.00 | 0.00 | 0.00 | 17 | 1799.4 |
| 20260904231619 | 118 | 270 | 2.0 | 11.0 | 0.00 | 0.00 | 0.00 | 16 | 5318.5 |
| 20260904231213 | 715 | 270 | 8.0 | 11.0 | 0.00 | 0.00 | 0.00 | 16 | 1799.1 |
| 20260904231011 | 715 | 270 | 3.0 | 11.0 | 0.00 | 0.00 | 0.00 | 16 | 1799.4 |
| 20260904230811 | 228 | 270 | 3.0 | 7.0 | 0.00 | 0.00 | 0.00 | 16 | 5318.5 |
| 20260904230405 | 283 | 270 | 6.0 | 10.0 | 0.00 | 0.00 | 0.00 | 16 | 5318.5 |
| 20260904230206 | -27 | 270 | 9.0 | 9.0 | 0.00 | 0.00 | 0.00 | 14 | 5318.5 |
| 20260904225357 | -16 | 270 | 2.0 | 7.0 | 0.00 | 0.00 | 0.00 | 14 | 5318.5 |
| 20260904224951 | -11 | 270 | 4.0 | 7.0 | 0.00 | 0.00 | 0.00 | 14 | 5318.5 |
| 20260904224752 | -15 | 270 | 3.0 | 7.0 | 0.00 | 0.00 | 0.00 | 14 | 1714.1 |
| 20260904223943 | 927 | 270 | 5.0 | 10.0 | 0.00 | 0.00 | 0.00 | 12 | 5318.5 |
| 20260904223536 | 147 | 270 | 6.0 | 10.0 | 0.00 | 0.00 | 0.00 | 12 | 5318.5 |
| 20260904222933 | 715 | 270 | 4.0 | 7.0 | 0.00 | 0.00 | 0.00 | 12 | 1799.4 |
| 20260904222123 | 274 | 270 | 2.0 | 6.0 | 0.00 | 0.00 | 0.00 | 12 | 5318.5 |
| 20260904221516 | -23 | 270 | 2.0 | 2.0 | 0.00 | 0.00 | 0.00 | 11 | 5318.5 |
| 20260904221313 | -27 | 270 | 1.0 | 6.0 | 0.00 | 0.00 | 0.00 | 10 | 5318.5 |
| 20260904221114 | -17 | 270 | 4.0 | 6.0 | 0.00 | 0.00 | 0.00 | 10 | 5318.5 |
| 20260904220505 | -15 | 270 | 4.0 | 5.0 | 0.00 | 0.00 | 0.00 | 10 | 5318.5 |
| 20260904220304 | -65 | 270 | 1.0 | 4.0 | 0.00 | 0.00 | 0.00 | 10 | 5318.5 |
| 20260904215903 | -10 | 270 | 2.0 | 5.0 | 0.00 | 0.00 | 0.00 | 10 | 5318.5 |
| 20260904215253 | 715 | 270 | 3.0 | 5.0 | 0.00 | 0.00 | 0.00 | 10 | 1799.3 |
| 20260904215054 | 998 | 270 | 3.0 | 6.0 | 0.00 | 0.00 | 0.00 | 10 | 5321.1 |
| 20260904214851 | 715 | 270 | 3.0 | 6.0 | 0.00 | 0.00 | 0.00 | 10 | 1799.4 |
| 20260904214445 | 49 | 270 | 5.0 | 6.0 | 0.00 | 0.00 | 0.00 | 10 | 5318.5 |
| 20260904213032 | -27 | 270 | 2.0 | 4.0 | 0.00 | 0.00 | 0.00 | 10 | 5318.5 |
| 20260904212426 | -13 | 270 | 4.0 | 4.0 | 0.00 | 0.00 | 0.00 | 10 | 5318.5 |
| 20260904212021 | -75 | 292 | 3.0 | 5.0 | 0.00 | 0.00 | 0.00 | 10 | 5318.5 |
| 20260904211415 | 743 | 270 | 3.0 | 4.0 | 0.00 | 0.00 | 0.00 | 9 | 5318.5 |
| 20260904211211 | 354 | 270 | 2.0 | 4.0 | 0.00 | 0.00 | 0.00 | 10 | 5318.5 |
| 20260904210809 | 906 | 270 | 3.0 | 5.0 | 0.00 | 0.00 | 0.00 | 9 | 5318.5 |
| 20260904210606 | 715 | 270 | 3.0 | 5.0 | 0.00 | 0.00 | 0.00 | 9 | 4420.7 |
| 20260904210204 | 239 | 270 | 2.0 | 4.0 | 0.00 | 0.00 | 0.00 | 9 | 5318.5 |
| 20260904205800 | 295 | 270 | 2.0 | 4.0 | 0.00 | 0.00 | 0.00 | 9 | 5318.5 |
| 20260904205556 | 256 | 270 | 4.0 | 4.0 | 0.00 | 0.00 | 0.00 | 9 | 5318.5 |
| 20260904205353 | -30 | 270 | 2.0 | 5.0 | 0.00 | 0.00 | 0.00 | 9 | 5318.5 |
| 20260904205151 | 715 | 270 | 2.0 | 5.0 | 0.00 | 0.00 | 0.00 | 9 | 1799.1 |
| 20260904204750 | -28 | 270 | 2.0 | 5.0 | 0.00 | 0.00 | 0.00 | 10 | 5318.5 |
| 20260904204343 | -23 | 270 | 4.0 | 5.0 | 0.00 | 0.00 | 0.00 | 9 | 5318.5 |
| 20260904203938 | -17 | 270 | 4.0 | 4.0 | 0.00 | 0.00 | 0.00 | 9 | 5318.5 |
| 20260904202928 | 262 | 270 | 1.0 | 3.0 | 0.00 | 0.00 | 0.00 | 9 | 5318.5 |
| 20260904202323 | 175 | 270 | 2.0 | 3.0 | 0.00 | 0.00 | 0.00 | 9 | 5318.5 |
| 20260904201717 | 715 | 270 | 1.0 | 2.0 | 0.00 | 0.00 | 0.00 | 9 | 4420.8 |
| 20260904201110 | -31 | 270 | 2.0 | 2.0 | 0.00 | 0.00 | 0.00 | 9 | 5318.5 |
| 20260904200911 | 302 | 270 | 2.0 | 3.0 | 0.00 | 0.00 | 0.00 | 9 | 5318.5 |
| 20260904200707 | -25 | 270 | 1.0 | 3.0 | 0.00 | 0.00 | 0.00 | 9 | 5318.5 |
| 20260904200302 | -20 | 270 | 3.0 | 5.0 | 0.00 | 0.00 | 0.00 | 8 | 5318.5 |
| 20260904195453 | -93 | 0 | 4.0 | 7.0 | 0.00 | 0.00 | 0.00 | 8 | 1714.1 |
| 20260904195251 | -13 | 348 | 5.0 | 7.0 | 0.00 | 0.00 | 0.00 | 8 | 5318.5 |
| 20260904194846 | -77 | 315 | 4.0 | 5.0 | 0.00 | 0.00 | 0.00 | 8 | 5318.5 |
| 20260904194644 | 170 | 315 | 3.0 | 6.0 | 0.00 | 0.00 | 0.00 | 8 | 5318.5 |
| 20260904194046 | 127 | 0 | 3.0 | 4.0 | 0.00 | 0.00 | 0.00 | 7 | 5318.5 |
| 20260904194025 | 293 | 270 | 3.0 | 3.0 | 0.00 | 0.00 | 0.00 | 6 | 5318.5 |
| 20260904194018 | -30 | 270 | 3.0 | 4.0 | 0.00 | 0.00 | 0.00 | 6 | 5318.5 |
| 20260904193836 | 127 | 0 | 3.0 | 4.0 | 0.00 | 0.00 | 0.00 | 7 | 5318.5 |
| 20260904193635 | 714 | 315 | 3.0 | 3.0 | 0.00 | 0.00 | 0.00 | 7 | 4420.8 |
| 20260904193232 | 276 | 315 | 2.0 | 3.0 | 0.00 | 0.00 | 0.00 | 7 | 5318.5 |
| 20260904192624 | 293 | 270 | 3.0 | 3.0 | 0.00 | 0.00 | 0.00 | 6 | 5318.5 |
| 20260904192221 | -30 | 270 | 3.0 | 4.0 | 0.00 | 0.00 | 0.00 | 6 | 5318.5 |
| 20260904192017 | -21 | 270 | 3.0 | 4.0 | 0.00 | 0.00 | 0.00 | 6 | 5318.5 |
| 20260904191818 | -25 | 270 | 4.0 | 4.0 | 0.00 | 0.00 | 0.00 | 6 | 5318.5 |
| 20260904191209 | -10 | 270 | 3.0 | 4.0 | 0.00 | 0.00 | 0.00 | 5 | 5318.5 |
| 20260904190603 | -86 | 270 | 1.0 | 2.0 | 0.00 | 0.00 | 0.00 | 5 | 5318.5 |
| 20260904190159 | 101 | 270 | 2.0 | 3.0 | 0.00 | 0.00 | 0.00 | 5 | 5318.5 |
| 20260904185148 | 715 | 270 | 2.0 | 3.0 | 0.00 | 0.00 | 0.00 | 5 | 4420.8 |
| 20260904184946 | 715 | 270 | 1.0 | 3.0 | 0.00 | 0.00 | 0.00 | 4 | 1799.4 |
| 20260904183734 | -22 | 270 | 0.0 | 3.0 | 0.00 | 0.00 | 0.00 | 2 | 5318.5 |
| 20260904183533 | -26 | 270 | 1.0 | 3.0 | 0.00 | 0.00 | 0.00 | 2 | 403.4 |
| 20260904183331 | -16 | 270 | 1.0 | 2.0 | 0.00 | 0.00 | 0.00 | 2 | 5318.5 |
| 20260904182926 | -11 | 270 | 1.0 | 2.0 | 0.00 | 0.00 | 0.00 | 2 | 5318.5 |
| 20260904182522 | -56 | 270 | 2.0 | 3.0 | 0.00 | 0.00 | 0.00 | 1 | 5318.5 |
| 20260904182118 | -14 | 270 | 2.0 | 4.0 | 0.00 | 0.00 | 0.00 | 1 | 5318.5 |
| 20260904181715 | 538 | 270 | 2.0 | 3.0 | 0.00 | 0.00 | 0.00 | 100 | 5318.5 |
| 20260904181511 | 147 | 270 | 2.0 | 3.0 | 0.00 | 0.00 | 0.00 | 100 | 5318.5 |
| 20260904181107 | 203 | 270 | 3.0 | 3.0 | 0.00 | 0.00 | 0.00 | 15 | 5321.0 |
| 20260904180300 | 313 | 270 | 2.0 | 3.0 | 0.00 | 0.00 | 0.00 | 15 | 5318.5 |
| 20260904175653 | -32 | 270 | 2.0 | 2.0 | 0.00 | 0.00 | 0.00 | 14 | 5318.5 |
| 20260904175451 | -23 | 270 | 2.0 | 5.0 | 0.00 | 0.00 | 0.00 | 14 | 5318.5 |
| 20260904175250 | -27 | 270 | 1.0 | 5.0 | 0.00 | 0.00 | 0.00 | 14 | 5318.5 |
| 20260904175046 | -17 | 270 | 2.0 | 3.0 | 0.00 | 0.00 | 0.00 | 14 | 5318.5 |
| 20260904174642 | -12 | 270 | 5.0 | 5.0 | 0.00 | 0.00 | 0.00 | 13 | 5318.5 |
| 20260904174239 | -65 | 270 | 2.0 | 3.0 | 0.00 | 0.00 | 0.00 | 13 | 5318.5 |
| 20260904174036 | -10 | 270 | 2.0 | 4.0 | 0.00 | 0.00 | 0.00 | 14 | 5318.5 |
| 20260904173629 | 697 | 270 | 1.0 | 3.0 | 0.00 | 0.00 | 0.00 | 12 | 5318.5 |
| 20260904173427 | 308 | 270 | 2.0 | 4.0 | 0.00 | 0.00 | 0.00 | 12 | 5318.5 |
| 20260904173226 | 124 | 270 | 1.0 | 4.0 | 0.00 | 0.00 | 0.00 | 13 | 5318.5 |
| 20260904172619 | 141 | 270 | 3.0 | 4.0 | 0.00 | 0.00 | 0.00 | 12 | 5318.5 |
| 20260904172416 | 235 | 270 | 4.0 | 4.0 | 0.00 | 0.00 | 0.00 | 12 | 5318.5 |
| 20260904172215 | 196 | 270 | 3.0 | 6.0 | 0.00 | 0.00 | 0.00 | 11 | 5318.5 |
| 20260904171608 | -30 | 270 | 4.0 | 6.0 | 0.00 | 0.00 | 0.00 | 10 | 5318.5 |
| 20260904171207 | 715 | 270 | 4.0 | 5.0 | 0.00 | 0.00 | 0.00 | 11 | 1799.4 |
| 20260904170801 | -19 | 270 | 4.0 | 6.0 | 0.00 | 0.00 | 0.00 | 10 | 1714.1 |
| 20260904170400 | -14 | 270 | 3.0 | 6.0 | 0.00 | 0.00 | 0.00 | 9 | 5318.5 |
| 20260904170154 | -18 | 270 | 1.0 | 6.0 | 0.00 | 0.00 | 0.00 | 9 | 5318.5 |
| 20260904165347 | 715 | 270 | 5.0 | 8.0 | 0.00 | 0.00 | 0.00 | 9 | 1799.1 |
| 20260904165147 | 216 | 270 | 1.0 | 8.0 | 0.00 | 0.00 | 0.00 | 8 | 5318.5 |
| 20260904164337 | 132 | 270 | 6.0 | 9.0 | 0.00 | 0.00 | 0.00 | 9 | 5318.5 |
| 20260904162921 | 715 | 270 | 4.0 | 9.0 | 0.00 | 0.00 | 0.00 | 8 | 1799.4 |
| 20260904162719 | -30 | 270 | 4.0 | 6.0 | 0.00 | 0.00 | 0.00 | 9 | 5318.5 |
| 20260904162516 | -20 | 270 | 4.0 | 7.0 | 0.00 | 0.00 | 0.00 | 9 | 5318.5 |
| 20260904162113 | -15 | 270 | 7.0 | 7.0 | 0.00 | 0.00 | 0.00 | 8 | 5318.5 |
| 20260904160902 | 124 | 270 | 3.0 | 5.0 | 0.00 | 0.00 | 0.00 | 9 | 5318.5 |
| 20260904160714 | 106 | 270 | 3.0 | 4.0 | 0.00 | 0.00 | 0.00 | 9 | 1714.1 |
| 20260904160254 | 161 | 270 | 2.0 | 6.0 | 0.00 | 0.00 | 0.00 | 9 | 5318.5 |
| 20260904155652 | 178 | 270 | 6.0 | 7.0 | 0.00 | 0.00 | 0.00 | 8 | 5318.5 |
| 20260904155446 | 272 | 270 | 5.0 | 7.0 | 0.00 | 0.00 | 0.00 | 8 | 5318.5 |
| 20260904155243 | 233 | 270 | 6.0 | 7.0 | 0.00 | 0.00 | 0.00 | 9 | 403.3 |
| 20260904155042 | 327 | 270 | 7.0 | 7.0 | 0.00 | 0.00 | 0.00 | 9 | 5318.5 |
| 20260904154839 | 288 | 270 | 2.0 | 6.0 | 0.00 | 0.00 | 0.00 | 9 | 5318.5 |
| 20260904154637 | -27 | 270 | 4.0 | 5.0 | 0.00 | 0.00 | 0.00 | 8 | 5318.5 |
| 20260904154436 | -31 | 270 | 1.0 | 5.0 | 0.00 | 0.00 | 0.00 | 9 | 5318.5 |
| 20260904154032 | -25 | 270 | 8.0 | 9.0 | 0.00 | 0.00 | 0.00 | 8 | 5318.5 |
| 20260904153425 | -10 | 270 | 4.0 | 11.0 | 0.00 | 0.00 | 0.00 | 9 | 5318.5 |
| 20260904153225 | -31 | 270 | 6.0 | 11.0 | 0.00 | 0.00 | 0.00 | 9 | 5318.5 |
| 20260904152212 | 714 | 270 | 3.0 | 10.0 | 0.00 | 0.00 | 0.00 | 10 | 4420.8 |
| 20260904151606 | 207 | 270 | 6.0 | 7.0 | 0.00 | 0.00 | 0.00 | 10 | 5318.5 |
| 20260904145141 | -11 | 270 | 5.0 | 10.0 | 0.00 | 0.00 | 0.00 | 11 | 5318.5 |
| 20260904144535 | 715 | 270 | 9.0 | 11.0 | 0.00 | 0.00 | 0.00 | 11 | 4420.9 |
| 20260904144333 | -60 | 270 | 4.0 | 11.0 | 0.00 | 0.00 | 0.00 | 11 | 5318.5 |
| 20260904144134 | 49 | 270 | 4.0 | 11.0 | 0.00 | 0.00 | 0.00 | 11 | 5318.5 |
| 20260904143929 | 715 | 270 | 8.0 | 17.0 | 0.00 | 0.00 | 0.00 | 11 | 4420.6 |
| 20260904143525 | 104 | 270 | 13.0 | 13.0 | 0.00 | 0.00 | 0.00 | 11 | 5318.5 |
| 20260904143323 | 198 | 270 | 13.0 | 13.0 | 0.00 | 0.00 | 0.00 | 11 | 5318.5 |
| 20260904143122 | 159 | 270 | 5.0 | 9.0 | 0.00 | 0.00 | 0.00 | 11 | 5318.5 |
| 20260904142919 | 715 | 270 | 5.0 | 9.0 | 0.00 | 0.00 | 0.00 | 10 | 4420.9 |
| 20260904142718 | 214 | 270 | 7.0 | 14.0 | 0.00 | 0.00 | 0.00 | 11 | 5318.5 |
| 20260904142516 | 308 | 270 | 5.0 | 16.0 | 0.00 | 0.00 | 0.00 | 11 | 5318.5 |
| 20260904142312 | 270 | 270 | 5.0 | 16.0 | 0.00 | 0.00 | 0.00 | 11 | 5318.5 |
| 20260904142112 | -29 | 270 | 9.0 | 12.0 | 0.00 | 0.00 | 0.00 | 11 | 5318.5 |
| 20260904141706 | -23 | 270 | 10.0 | 17.0 | 0.00 | 0.00 | 0.00 | 10 | 5318.5 |
| 20260904141504 | -27 | 270 | 13.0 | 13.0 | 0.00 | 0.00 | 0.00 | 11 | 5318.5 |
| 20260904141302 | -18 | 270 | 6.0 | 10.0 | 0.00 | 0.00 | 0.00 | 11 | 5318.5 |
| 20260904140858 | -12 | 270 | 6.0 | 13.0 | 0.00 | 0.00 | 0.00 | 10 | 5318.5 |
| 20260904140658 | -16 | 270 | 7.0 | 13.0 | 0.00 | 0.00 | 0.00 | 11 | 403.3 |
| 20260904140454 | -70 | 270 | 7.0 | 9.0 | 0.00 | 0.00 | 0.00 | 11 | 5318.5 |
| 20260904135655 | 715 | 270 | 15.0 | 15.0 | 0.00 | 0.00 | 0.00 | 11 | 1799.3 |
| 20260904135139 | 715 | 270 | 9.0 | 12.0 | 0.00 | 0.00 | 0.00 | 11 | 1799.4 |
| 20260904134938 | -22 | 270 | 7.0 | 12.0 | 0.00 | 0.00 | 0.00 | 11 | 5318.5 |
| 20260904134735 | -13 | 270 | 7.0 | 7.0 | 0.00 | 0.00 | 0.00 | 12 | 5318.5 |
| 20260904134331 | -79 | 270 | 3.0 | 11.0 | 0.00 | 0.00 | 0.00 | 12 | 5318.5 |
| 20260904133927 | -24 | 270 | 5.0 | 10.0 | 0.00 | 0.00 | 0.00 | 11 | 5318.5 |
| 20260904132917 | 180 | 270 | 6.0 | 13.0 | 0.00 | 0.00 | 0.00 | 11 | 5320.2 |
| 20260904132718 | 141 | 270 | 7.0 | 13.0 | 0.00 | 0.00 | 0.00 | 11 | 5318.5 |
| 20260904132512 | 235 | 270 | 7.0 | 7.0 | 0.00 | 0.00 | 0.00 | 12 | 5318.5 |
| 20260904132310 | 196 | 270 | 3.0 | 14.0 | 0.00 | 0.00 | 0.00 | 12 | 5318.5 |
| 20260904132108 | 290 | 270 | 7.0 | 14.0 | 0.00 | 0.00 | 0.00 | 11 | 5318.5 |
| 20260904131502 | 306 | 270 | 7.0 | 14.0 | 0.00 | 0.00 | 0.00 | 11 | 5318.5 |
| 20260904131300 | 715 | 270 | 6.0 | 8.0 | 0.00 | 0.00 | 0.00 | 12 | 4420.6 |
| 20260904130856 | 715 | 270 | 6.0 | 12.0 | 0.00 | 0.00 | 0.00 | 12 | 4420.8 |
| 20260904130454 | -14 | 270 | 8.0 | 12.0 | 0.00 | 0.00 | 0.00 | 12 | 5318.5 |
| 20260904130047 | -88 | 270 | 11.0 | 13.0 | 0.00 | 0.00 | 0.00 | 12 | 5318.5 |
| 20260904125531 | 290 | 270 | 8.0 | 12.0 | 0.00 | 0.00 | 0.00 | 12 | 5318.5 |
| 20260904124926 | 306 | 270 | 5.0 | 13.0 | 0.00 | 0.00 | 0.00 | 12 | 5318.5 |